Погода в Балхаше

Погода в Балхаше : погода сейчас, прогноз погоды и архив. Всё, что Вы хотите узнать о погоде в Балхаше!

Хотите узнать прогноз погоды в Балхаше? Тогда Вам сюда: Погода в Балхаше

Поиск расширенной информации на нашем сайте:

Другие новости

Новости СМИ2

Главная страница сайта

Новости сайта

02.10.2013

Напоминаем, что на нашем новом сайте вы можете получить высокодетализированные прогнозы погоды по пунктам России, СНГ и мира (включающие важные для авиации метеовеличины, такие как направление и скорость ветра, видимость, явления погоды, количество и форма облачности, нижняя и верхняя граница облачности), а также ознакомиться с разнообразными материалами по авиационной метеорологии и подборкой полезных ссылок на эту тему.

Сайт Метеоцентр.Азия посвящён разработке технологий оптимизации авиаметеорологического обслуживания, включая проектирование и перспективное создание нескольких автоматизированных авиаметеорологических систем:
- система выпуска высокодетальных прогностических карт явлений погоды для нижнего воздушного пространства по России и ближнему зарубежью;
- система верификации прогнозов TAF (выпускаемых синоптиками официальных АМСГ РФ и ближнего зарубежья) и AUTOTAF (выпускаемых сайтом Метеоцентр.Азия) - выявление ошибок, онлайн-сопоставление с фактической погодой METAR, автоматическое внесение коррективов в прогнозы при резком отклонении фактической погоды от прогноза, подсчёт оправдываемости прогнозов по элементам и в целом;
- система обработки, анализа и отображения авиаметеорологической информации для применения провайдерами метеорологической информации.


Погода в Балхаше - сегодня

Время (UTC), дата Ветер
(°,м/с) 
Видим.   Явления Облачность Т
(°С)
Тd
(°С)
f(%) Тe
(°С)
Pmin
(гПа)
dP
(гПа)
Po
(мм)
O2
(г/м3)
Тmin Tmax R s Состояние
почвы
06 27.03.17 180 (Ю) 20000 м    4/4 1000 м 
[Sc]
+3.2 +1.6 89 +4  1027.2    738  294  -0.1         
09 27.03.17 180 (Ю) 10 км  дым  3/1 1000 м верхняя 
[Sc|Ci fib]
+3.6 -2.3 65 +4  1025.6  -1.6  737  293           
12 27.03.17 230 (ЮЗ) 20000 м    9/0 верхняя 
[Ci fib]
+4.6 +0.2 73 +5  1025.1  -0.3  737  292           
15 27.03.17 140 (ЮВ) 10 км    8/0 верхняя 
[Ci sp]
+1.8 +0.2 89 1026.6  737  295    +6.7       
18 27.03.17 050 (СВ) 10 км    ясно 
-0.4 -0.7 98 -2  1026.8  -0.1  737  298    +6.7       
21 27.03.17 090 (В) 10 км    10/0 средняя 
[Ac As]
+1.1 -0.9 86 1026.1  -0.5  737  296           
00 28.03.17 070 (В) 10 км  {дождь}  10/0 средняя 
[As op]
+1 +0.2 94 -1  1025.1  -0.9  736  295           
03 28.03.17 110 (В) 10 км    10/10 1000 м 
[Sc]
+1.7 +0.9 94 1025.4  0.4  737  295      0.0     
06 28.03.17 160 (Ю) 10 км    9/9 1500 м 
[Sc]
+4.8 +1.8 81 +6  1024.6  -0.3  736  291  -0.8    0.0     
09 28.03.17 180 (Ю) 20000 м    8/5 1500 м средняя 
[Sc|Ac trans]
+5.1 +2.1 81 +4  1022.9  -1.6  735  290           
12 28.03.17 180 (Ю) 20000 м    8/0 верхняя 
[Ci sp]
+5.5 +2.1 79 +6  1021.3  -1.5  734  290           
15 28.03.17 090 (В) 10 км    ясно 
+5.8 +2.7 80 +5  1020.5  -0.7  734  289    +8.2       
18 28.03.17 050 (СВ) 10 км    ясно 
+3 +1.2 88 +1  1019.5  -1.4  732  292    +8.2       
21 28.03.17 050 (СВ) 10 км    ясно 
+1.4 +0.9 96 -1  1017.8  -1.8  731  293           
00 29.03.17 090 (В) 10 км    9/0 средняя, верхняя 
[Ac trans|Ci fib]
+1.4 +0.9 96 1017.1  -0.7  731  293           
03 29.03.17 090 (В) 10 км    10/0 верхняя 
[Ci sp]
+3.5 +2 90 +2  1017.2  0.4  731  290           
06 29.03.17 180 (Ю) 10 км  дым  10/3 1000 м средняя, верхняя 
[Sc|Ac cast|Cs]
+7.9 +3.8 75 +9  1016.7  0.2  731  286  +0.7         
09 29.03.17 230 (ЮЗ) 4000 м  слаб. ливневой дождь  10/10 600 м кучево-дожд. 
[Cb cap]
+7.6 +6.1 90 +6  1016.6  -0.1  731  285           
12 29.03.17 160 (Ю) 4000 м  дымка{ливн. осадки}  8/0 верхняя 
[Cc]
+5.4 +4 91 +5  1016.5  -0.5  731  288           
15 29.03.17 090 (В) 10 км    8/3 600 м кучево-дожд., верхняя 
[Cb calv|Ci fib]
+8.9 +6.1 83 +8  1014.7  -1.2  730  284    +11.5     
18 29.03.17 тихо ()   10 км  в посл. час ливневой дождь  10/8 600 м кучево-дожд., верхняя 
[Cb calv|Ci ing]
+7.6 +5.6 87 +8  1015.3  0.4  730  285    +11.5     
21 29.03.17 050 (СВ) 10 км    9/9 1000 м 
[Sc]
+7.8 +5.8 87 +8  1011.7  -3.4  727  284           
00 30.03.17 320 (СЗ) 10 км    10/0 средняя 
[As op]
+7.2 +5.4 88 +8  1012.3  0.5  728  285           
03 30.03.17 140 (ЮВ) 4000 м  в посл. час дождь  10/10 1000 м 
[Sc|Ac As]
+3.1 +2.6 97 +2  1011.9  -1  727  289      0.5     
06 30.03.17 140 (ЮВ) 10  4000 м  слаб. ливневой дождь  10/10 600 м кучево-дожд. 
[Cb cap]
+4.8 +4.6 99 +1  1013  1.3  728  287  +2.9    0.5     
Время (UTC), дата Ветер
(°,м/с) 
Видим.   Явления Облачность Т
(°С)
Тd
(°С)
f(%) Тe
(°С)
Pmin
(гПа)
dP
(гПа)
Po
(мм)
O2
(г/м3)
Тmin Tmax R s Состояние
почвы

Для получения пояснительной информации подведите курсор к названию столбца.

ПОГОДА в Балхаше - архив

Всё, что Вы хотите узнать о погоде в Балхаше - удобно и подробно!

Выберите нужную дату (начиная с 1 января 2015* года) и нажмите кнопку "Найти".
Будут отображены архивные сводки погоды по пункту Балхаш, начиная с указанной даты.


Отображать данные в формате CSV (для использования в таблицах Excel)


Внимание! Наш архив погоды предназначен исключительно для личного некоммерческого использования в познавательных целях. Если Вам необходимы официальные справки о состоянии погоды (для производственных, юридических, коммерческих и т.п. целей), обращайтесь в органы Росгидромета.

*Примечание: данная дата относится к архиву по метеостанциям СССР (Россия, СНГ, Балтия).
Архив по метеостанциям Зарубежной Европы и Азии (кроме Китая) хранится 10 дней, по другим регионам земного шара (Китай, Африка, Америка, Австралия, Океания) - 1 день.

Балхаш - район местоположения метеостанции


Название, широта, долгота, высота метеостанции:
Балхаш 46.8°ш. 75.1°д. 350 м над ур. моря [Казахстан]

Дополнительная информация

В oтличие oт бoльшинства пoгoдных сайтoв мы публикуем пoдрoбную метеoинфoрмацию в детальнoм прoфессиoнальнoм фoрмате.

Характеристики температуры и влажнoсти вoздуха измеряются на высoте 2 м в тени вдали oт зданий и деревьев.
Скoрoсть ветра измеряется на высoте 10 м (на урoвне рoста челoвека скoрoсть ветра ниже в 1.5-2 раза). Если метеoстанция нахoдится в гoрoде или в лесу, тo скoрoсть ветра занижена на 2-4 м/с пo сравнению с oткрытым местoм. Скoрoсть ветра над акватoриями крупных рек и oзёр, а также на вершинах хoлмoв на 2-5 м/с выше, чем в oбычных услoвиях.
Атмoсфернoе давление в разных тoчках местнoсти мoжет значительнo oтличаться oт давления на метеoстанции, в зависимoсти oт услoвий рельефа (при пoдъёме на 10 м давление пoнижается примернo на 1 мм рт.ст.).